Regional Weather Roundup
Issued by NWS Charleston, SC

Current Version | Previous Version | Text Only | Print | Product List | Glossary Off
Versions: 1 2 3 4 5 6 7 8 9 10 11 12 13 14 15 16 17 18 19 20 21 22 23 24 25 26 27 28 29 30 31 32 33 34 35 36 37 38 39 40 41 42 43 44 45 46 47 48 49 50
000 ASUS42 KCHS 241412 RWRCHS REGIONAL WEATHER ROUNDUP NATIONAL WEATHER SERVICE CHARLESTON SC 1000 AM EDT SUN MAY 24 2015 NOTE: "FAIR" INDICATES FEW OR NO CLOUDS BELOW 12,000 FEET WITH NO SIGNIFICANT WEATHER AND/OR OBSTRUCTIONS TO VISIBILITY. NOT ALL STATIONS ARE QUALITY CONTROLLED BY THE NATIONAL WEATHER SERVICE. USE DATA WITH CAUTION...ESPECIALLY DEWPOINT OBSERVATIONS. SCZ027-030-031-034>040-042>050-241500- ...SOUTHEAST SOUTH CAROLINA... CITY SKY/WX TMP DP RH WIND PRES REMARKS N CHARLESTON MOSUNNY 77 57 50 E13 30.37S WATERFRONT PAR N/A 77 62 59 E14 30.34R MOUNT PLEASANT FAIR 77 59 53 E9G17 30.37S JOHNS ISLAND SUNNY 79 61 53 E13 30.37S PINOPOLIS N/A 79 61 53 VRB3 30.29S MONCKS CORNER FAIR 77 59 53 E8 30.37F SUMMERVILLE FAIR 77 61 57 E3 30.38F BEAUFORT MCAS MOSUNNY 78 61 55 E15 30.35S BEAUFORT ARPT FAIR 77 63 61 E7 30.35R HILTON HEAD IS MOSUNNY 79 63 57 NE9 30.36R WALTERBORO SUNNY 75 59 57 E12 30.37S ALLENDALE FAIR 75 59 57 VRB7 30.36S ...SOUTHERN MIDLANDS AND PEE DEE... CITY SKY/WX TMP DP RH WIND PRES REMARKS GEORGETOWN NOT AVBL KINGSTREE NOT AVBL ORANGEBURG MOSUNNY 75 57 53 VRB7 30.38S BARNWELL FAIR 75 59 57 E10 30.38S AIKEN FAIR 73 55 53 E8 30.41S MANNING FAIR 73 50 43 NE6 30.39S COLUMBIA PTSUNNY 75 57 53 E9 30.38S SUMTER SUNNY 76 57 53 VRB6 30.38S FLORENCE MOSUNNY 77 57 50 E7 30.39F MYRTLE BEACH PTSUNNY 79 57 47 E13 30.42R N MYRTLE BEACH SUNNY 78 57 48 E12 30.40S $$ GAZ063-065-086>088-099>101-113>116-118-119-134>141-150-241500- ...SOUTHEAST GEORGIA... CITY SKY/WX TMP DP RH WIND PRES REMARKS SAVANNAH ARPT PTSUNNY 79 61 53 E9 30.34S HUNTER AAF MOSUNNY 79 63 56 E10 30.31S FORT STEWART SUNNY 79 62 57 E7G18 30.31S STATESBORO SUNNY 76 65 67 E7 30.35S SYLVANIA SUNNY 77 64 62 SE7 30.36S CLAXTON FAIR 77 64 65 E8 30.34S ...CSRA...CENTRAL AND FAR SOUTHEAST GEORGIA... CITY SKY/WX TMP DP RH WIND PRES REMARKS THOMSON SUNNY 76 65 67 SE3 30.41S AUGUSTA-BUSH SUNNY 75 59 57 SE9 30.36S AUGUSTA-DANIEL SUNNY 75 58 55 SE9 30.37S SWAINSBORO FAIR 79 64 61 SE8 30.36R VIDALIA SUNNY 77 63 61 E12 30.33S EASTMAN PTSUNNY 77 67 70 SE9 30.36S HAZLEHURST FAIR 79 66 64 SE7G17 30.32S ALMA MOSUNNY 78 64 61 E8 30.32R WAYCROSS MOSUNNY 79 67 65 E15 30.31S JESUP FAIR 81 68 65 E14 30.32S BAXLEY FAIR 81 64 57 E7 30.32S BRUNSWICK PTSUNNY 81 61 50 E14 30.32S SAINT SIMONS NOT AVBL $$ SCZ027-028-034-036>038-045-046-048>050-GAZ119-141-241500- ...LAKE AND SUPPLEMENTAL COASTAL OBSERVATIONS... STATION/POSITION TIME TEMP WIND PRES WAVE SWELL AIR SEA DIR/SP/G HT/PER HT/PER/DIR (UTC) (F) (DEG/KT/KT) (MB) (FT/S) (FT/S/D) UPR LAKE MARION NOT AVBL WINYAH BAY 1245 74 110/ 9 1028.0 LAKE MURRAY 1300 70 100/ 5/ 7 1028.4F ACE BASIN NERRS NOT AVBL FORT PULASKI 1300 75 78 70/ 14/ 15 1027.8R SAPELO ISLAND 1300 78 70/ 10 1026.0S $$ ANZ835-935-AMZ111-154-330-350-352-354-370-450-454-472-241500- ...C-MAN AND BUOY OBSERVATIONS... STATION/POSITION TIME TEMP WIND PRES WAVE SWELL AIR SEA DIR/SP/G HT/PER HT/PER/DIR (UTC) (F) (DEG/KT/KT) (MB) (FT/S) (FT/S/D) BUOY 41004 1350 75 75 80/ 14/ 17 1027.4R 5/ 5 2/ 8 BUOY 41008 1350 75 75 90/ 8/ 10 1026.9R 5/ 8 5/100/ 8 FOLLY BEACH CMAN 1400 75 80/ 14/ 15 1028.2R CAPERS NEARSHORE 1308 75 90/ 14/ 17 1028.5R FRIPP NEARSHORE 1300 76 100/ 14/ 16 1026.6R STATION/POSITION TIME TEMP WIND PRES WAVE SWELL AIR SEA DIR/SP/G HT/PER HT/PER/DIR (UTC) (F) (DEG/KT/KT) (MB) (FT/S) (FT/S/D) 5E ST. MARYS GA 1321 77 N/A 5/ 7 FRYING PAN BUOY 1350 75 73 100/ 12/ 16 1029.7R 4/ 6 3/110/ 6 BUOY 41025 1350 73 77 50/ 4/ 6 1030.2S 2/ 8 2/ 50/ 8 CAPE LOOKOUT NC 1400 74 50/ 6/ 7 1029.7S BUOY 41002 1350 72 74 80/ 19/ 23 1028.2R 6/ 6 BUOY 41010 1320 78 80 80/ 14/ 16 1024.3R ST AUGUSTINE FL 1400 76 76 60/ 11/ 12 1026.1R $$

USA.gov is the U.S. government's official web portal to all federal, state and local government web resources and services.